CZ-2F DEB (53360 NORAD) Tracking and Keplerian Element Data

This shows tracking and keplerian element data for the satellite.

Feedback or suggestion? Click here.




ElementValue
Catalog53360
NameCZ-2F DEB
Epoch Orbit380
Epoch Day241.70848524
Epoch Year2022
RAAN42.1464
Inclination50.3312
Eccentricity0.0239949
Argument of Perigee260.2771
Mean Anonmoly97.1013
Mean Motion15.21264964
Decay Rate0.00092861
L11 53360U 22093D 22241.70848524 .00092861 00000+0 18154-2 0 9998
L22 53360 50.3312 42.1464 0239949 260.2771 97.1013 15.21264964 3807



Live tracking and technical data element details for CZ-2F DEB (NORAD 53360). CZ-2F DEB can be tracked NOW for your location showing map with azimuth and elevation plus other details from your city location.







IsCatalogInMostPopularTable: catalog: 53360, numindb: 6
Update: records affected: 1



GetName: 53360 CZ-2F DEB

Hit Count: updated at: Thu, 08 Dec 2022 19:15:03 GMT